SCP
0 0 0 0 0 0 0 0 0 0 0 0 0 0 0 0 0 0 0 0 0 0 0 0 0 0 0 0 0 0 0 0 0 0 0 0 0 0 0 0 0 0 0
0 0 0 0 0 0 0 0 0 0 0 0 0 0 0 0 0 0 0 0 0 0 0 0 0 0 0 0 0 0 0 0 0 0 0 0 0 0 0 0 0 0 0
0 0 0 0 0 0 0 0 0 0 0 0 0 0 0 0 0 0 0 0 0 0 0 0 0 0 0 0 0 0 0 0 0 0 0 0 0 0 0 0 0 0 0
0 0 0 0 0 0 0 0 0 0 0 0 0 0 0 0 0 0 0 0 0 0 0 0 0 0 0 0 0 0 0 0 0 0 0 0 0 0 0 0 0 0 0
0 0 0 0 0 0 0 0 0 0 0 0 0 0 0 0 0 0 0 0 0 0 0 0 0 0 0 0 0 0 0 0 0 0 -0 -0 0 0 0 0 0 -0 0
0 0 0 0 0 0 0 0 0 0 0 0 0 0 0 0 0 0 0 0 0 0 0 0 0 0 0 0 0 0 0 0 0 0 -0 0 0 -0 -0 -0 -0 -0 -0
0 0 0 0 0 0 0 0 0 0 0 0 0 0 0 0 0 -0 0 0 0 0 0 0 0 0 -0 0 0 0 0 0 0 0 0 0 0 -0 -0 -0 -0 -0 -0
0 0 0 0 0 0 0 0 0 0 0 0 0 0 0 0 0 0 0 0 0 0 0 0 0 0 0 0 0 0 0 0 0 0 0 0 0 0 -0 -0 0 0 0
0 0 0 0 0 0 0 0 0 0 0 0 0 0 0 0 0 0 0 0 0 0 0 0 0 0 0 0 0 0 0 0 0 0 0 0 0 0 0 0 0 0 0
0 0 0 0 0 0 0 0 0 0 0 0 0 0 0 0 0 0 0 0 0 0 0 0 0 0 0 0 0 0 0 0 0 0 0 0 0 0 0 0 0 0 0
0 0 0 0 0 0 0 0 0 0 0 0 0 0 0 0 0 0 0 0 0 0 0 0 0 0 0 0 0 0 0 0 0 0 0 0 0 0 0 0 0 0 0
0 0 0 0 0 0 0 0 0 0 0 0 0 0 0 0 0 0 0 0 0 0 0 0 0 0 0 0 0 0 0 0 0 0 0 0 0 0 0 0 0 0 0
0 0 0 0 0 0 0 0 0 0 0 0 0 0 0 0 0 0 0 0 0 0 0 0 0 0 0 0 0 0 0 0 0 0 0 0 0 0 -0 0 0 0 0
0 0 0 0 0 0 0 0 0 0 0 0 0 0 0 0 0 0 0 0 0 -0 -0 0 0 0 0 0 0 0 0 0 0 0 0 0 0 0 0 -0 -0 0 0
0 0 0 0 0 0 0 0 0 0 0 0 0 0 0 0 0 0 0 0 0 -0 -0 0 0 0 0 0 0 0 0 0 0 0 0 0 0 0 -0 -0 -0 -0 -0
0 0 0 0 0 0 0 0 0 0 0 0 0 0 0 0 0 0 0 0 -0 -0 0 0 0 0 0 0 0 0 0 0 0 0 0 0 0 -0 -0 -0 -0 0 0
0 0 0 0 0 0 0 0 0 0 0 0 0 0 0 0 0 0 0 0 0 -0 0 0 0 0 0 0 0 0 0 0 0 0 0 0 0 0 -0 -0 -0 0 0
0 0 0 0 0 0 0 0 0 0 0 0 0 -0 -0 0 0 0 0 0 0 0 0 0 0 0 0 0 0 0 0 0 0 0 0 0 0 0 0 0 0 0 0
0 0 0 0 0 0 0 0 0 0 0 0 0 -0 0 0 0 0 0 0 0 0 0 0 0 0 0 0 0 0 -0 0 0 0 0 0 0 0 0 0 0 0 0
0 0 0 0 0 0 0 0 0 0 0 0 0 0 0 0 0 0 0 0 0 0 0 0 0 0 0 0 0 0 -0 0 0 0 0 0 0 0 0 0 0 0 0
0 0 0 0 0 0 0 0 0 0 0 0 0 0 0 0 0 0 0 0 0 0 0 0 0 0 0 0 0 0 0 0 0 0 0 0 0 0 0 0 0 0 0
0 0 0 0 0 0 0 0 0 0 0 0 0 0 0 0 0 0 0 0 0 0 0 0 0 0 0 0 0 0 0 0 0 0 0 0 0 0 0 0 0 0 0
0 0 0 0 0 0 0 0 0 0 0 0 0 0 0 0 0 0 0 0 0 0 0 0 0 0 0 0 0 0 0 0 0 0 0 0 0 0 0 0 0 0 0
0 0 0 0 0 0 0 0 0 0 0 0 0 0 0 0 0 0 0 0 0 0 0 0 0 0 0 0 0 0 0 0 0 0 0 0 0 0 0 0 0 0 0
0 0 0 0 0 0 0 0 0 0 0 0 0 0 0 0 0 0 0 0 0 0 0 0 0 0 0 0 0 0 0 0 0 0 0 0 0 0 0 0 0 0 0
0 0 0 0 0 0 0 0 0 0 0 0 0 0 0 0 0 0 0 0 0 0 0 0 0 0 0 0 0 0 0 0 0 0 0 0 0 0 0 0 0 0 0
Wind_Speed
9 6 3 4 1 2 3 3 3 4 5 6 6 7 9 10 11 11 12 13 14 12 11 13 15 15 12 11 11 10 10 12 16 14 14 12 14 12 12 12 11 9 8
6 3 3 3 1 3 4 4 5 6 7 8 9 10 12 13 13 14 14 15 16 16 14 16 16 16 14 13 12 13 12 11 15 16 15 14 13 14 13 13 10 9 9
5 3 2 1 3 4 4 4 5 7 9 10 12 13 14 14 15 14 14 15 15 14 15 16 15 18 16 15 14 13 13 11 12 13 15 14 12 12 13 10 8 10 9
4 2 1 2 3 4 5 6 7 9 11 12 13 13 13 13 12 11 11 11 12 11 12 13 14 14 16 15 14 15 13 13 11 12 14 13 13 11 9 9 10 9 7
3 2 1 1 2 4 6 8 9 10 9 9 9 9 9 8 8 10 12 13 14 12 14 15 14 17 20 18 15 15 14 12 11 11 13 13 10 10 10 8 11 9 8
1 1 1 2 5 6 7 8 7 7 7 7 7 8 8 6 10 10 12 14 14 14 15 15 14 16 19 19 17 19 18 17 16 14 13 13 13 11 11 6 7 9 7
2 3 2 3 4 5 6 6 6 6 7 7 8 8 8 6 7 8 12 14 13 13 14 13 13 13 14 13 15 17 19 20 21 17 16 18 16 14 10 8 8 10 7
2 3 3 4 5 5 5 6 7 7 8 8 8 8 7 3 4 9 15 14 13 13 12 12 12 13 14 14 14 14 14 16 17 15 15 14 12 11 10 10 10 8 2
3 3 5 5 5 6 6 7 7 8 7 8 7 7 7 6 4 8 13 11 11 13 11 11 12 11 13 15 14 14 15 14 14 16 16 16 18 20 16 9 6 4 3
5 6 6 6 6 6 6 7 6 7 7 8 8 7 6 8 4 6 12 10 11 11 11 11 15 15 16 16 13 13 14 14 10 7 7 8 9 9 6 7 4 3 2
4 6 5 5 4 5 6 5 6 5 6 7 8 7 7 8 7 7 12 11 11 11 11 9 9 14 15 15 13 11 12 12 10 6 3 3 4 4 4 4 3 1 0
5 5 4 5 6 6 6 4 3 5 6 7 8 7 7 7 7 11 14 13 14 12 11 10 11 14 15 14 11 11 12 8 1 2 2 3 3 4 4 5 5 5 5
5 5 5 6 6 6 4 5 6 6 6 8 8 8 8 8 9 13 15 15 16 14 12 16 14 14 14 11 10 8 5 3 4 4 3 4 3 2 3 5 7 7 8
5 5 5 6 5 5 6 7 7 7 7 6 7 7 8 9 10 11 12 12 13 13 13 13 13 11 11 10 9 7 6 5 4 4 3 3 3 5 6 4 4 5 7
5 5 5 5 6 6 6 7 8 8 6 6 8 9 9 9 11 14 13 10 9 11 12 8 8 8 7 6 5 5 5 4 4 4 4 4 5 7 6 6 6 6 7
4 5 5 5 7 6 4 2 3 2 1 2 5 7 8 9 13 16 16 14 14 15 9 7 7 8 7 6 5 5 6 5 5 5 5 5 6 6 5 7 7 6 7
6 5 4 5 5 5 6 7 7 5 1 1 5 9 10 11 13 16 17 14 11 11 8 8 8 8 7 7 6 5 5 5 5 4 4 5 5 4 5 6 8 8 8
5 2 5 6 7 7 6 6 6 6 7 6 7 8 10 12 12 13 16 11 9 8 8 8 8 8 7 6 6 5 6 6 5 5 6 6 3 2 4 6 8 10 9
8 7 6 6 6 5 5 5 4 4 6 6 8 10 11 11 12 12 12 9 8 8 8 7 8 8 8 6 5 5 6 6 6 7 6 4 3 5 8 10 11 12 11
8 6 6 6 6 6 6 6 6 7 8 8 8 9 11 10 9 9 9 8 8 7 8 7 7 8 7 7 6 6 6 6 6 5 5 4 4 6 9 9 9 10 9
6 5 4 7 7 7 7 6 5 5 6 7 7 9 13 10 8 9 8 8 8 8 8 7 7 7 7 8 6 6 7 6 4 3 5 6 7 8 8 8 9 9 8
5 6 6 7 7 7 7 8 8 8 9 8 8 7 7 7 7 7 8 9 8 8 8 7 6 6 6 7 6 6 6 5 3 3 5 7 7 8 8 8 9 7 9
5 6 6 7 7 7 7 8 8 7 6 5 6 7 8 8 8 8 9 9 8 8 7 6 7 7 6 6 5 5 5 4 3 3 5 7 7 7 7 8 8 8 10
6 6 7 7 7 7 8 8 8 7 8 8 8 7 8 9 10 10 8 8 8 8 8 7 7 8 8 6 5 5 5 6 6 4 4 6 8 7 7 8 9 11 10
7 7 7 7 7 7 7 8 8 9 9 9 9 8 9 10 10 10 8 7 8 9 9 10 9 9 10 11 11 10 8 9 8 7 4 7 8 8 8 7 9 12 11
8 7 7 7 7 7 8 8 8 8 8 9 9 9 9 9 9 9 10 9 7 8 9 8 11 13 13 11 13 13 10 9 9 10 6 6 7 7 8 7 8 9 9
Wind_Direction
73 71 60 65 97 228 279 332 310 290 291 295 300 297 292 288 286 282 279 279 278 273 268 272 277 285 289 298 293 288 283 285 286 283 281 272 269 285 280 281 282 276 271
95 111 100 80 325 273 291 313 296 282 285 290 292 287 285 284 284 284 284 286 290 291 287 290 295 288 291 290 291 285 284 283 282 282 279 281 287 279 275 269 268 268 266
107 98 77 16 280 269 285 305 295 288 288 292 294 290 292 298 301 299 298 303 303 304 301 299 293 289 291 291 289 289 289 286 282 287 281 273 268 264 267 268 293 286 290
115 142 187 286 283 274 287 294 294 294 292 293 291 296 304 307 309 325 330 322 308 302 298 291 285 284 283 285 288 289 285 282 283 285 284 281 280 276 273 275 286 284 291
150 156 148 211 268 282 293 303 306 304 309 314 317 318 321 324 10 355 324 312 308 308 300 294 293 299 300 290 280 281 286 285 281 278 278 277 279 286 283 294 295 302 287
146 188 170 267 287 297 305 310 318 335 340 337 336 332 332 355 39 356 325 313 311 311 307 304 299 294 290 284 280 277 276 280 283 282 287 287 286 289 293 292 282 280 266
218 256 268 288 306 329 333 343 353 351 344 337 332 332 329 5 38 341 325 314 312 300 296 299 302 298 298 299 294 290 284 279 275 273 272 273 277 281 291 276 260 263 256
215 294 333 359 9 23 4 1 357 347 341 339 334 329 326 19 24 338 331 315 306 303 302 301 300 296 297 297 295 289 282 276 270 265 264 271 282 283 266 257 256 261 234
290 353 31 43 46 16 3 2 353 343 349 335 333 336 342 340 0 351 332 320 312 308 312 308 298 287 283 281 282 281 278 276 263 252 261 271 273 269 257 245 232 206 192
17 53 65 47 22 10 2 356 351 340 353 343 343 335 327 318 358 9 336 323 312 314 310 303 302 296 290 287 287 286 285 290 300 301 285 278 287 295 254 218 211 198 185
81 92 68 34 8 0 352 357 340 340 354 338 324 319 315 316 338 21 344 329 324 314 307 309 301 305 307 301 293 289 292 300 298 295 307 328 328 355 41 60 56 40 194
99 85 56 17 355 357 347 334 330 8 350 342 335 334 328 327 345 359 336 322 323 317 308 314 330 333 323 313 303 294 293 296 343 35 27 14 10 31 51 66 68 67 62
99 71 38 17 9 357 344 354 19 18 2 357 347 340 330 336 349 347 332 325 327 324 315 317 331 340 331 326 334 344 356 37 60 53 41 29 16 40 92 76 67 67 56
87 56 38 42 10 23 21 32 21 14 10 351 340 338 337 344 342 335 330 329 329 324 323 325 340 345 343 349 2 18 35 58 62 56 48 32 24 50 53 65 74 60 62
67 43 32 57 50 47 40 23 22 33 14 348 349 339 334 330 325 321 320 323 324 322 324 340 351 354 358 8 17 25 37 46 50 51 47 40 47 50 40 51 65 65 70
56 63 33 36 49 37 30 89 117 72 338 334 342 331 330 326 324 328 332 329 333 334 340 352 350 350 353 4 26 36 40 45 50 50 44 41 58 59 69 92 98 88 80
38 30 53 40 38 41 24 20 17 8 307 308 4 350 349 344 340 341 344 342 347 348 358 350 347 350 0 15 35 40 39 48 61 55 65 70 70 79 95 87 77 74 79
77 24 23 36 30 38 24 27 17 359 356 360 6 358 347 341 341 345 349 354 2 3 358 349 344 347 358 18 24 31 41 48 43 43 62 76 73 74 69 85 84 88 82
39 31 30 46 37 35 37 24 17 8 6 1 359 360 357 354 359 358 359 6 0 355 351 349 346 345 350 4 18 44 55 52 42 43 59 71 38 65 79 79 78 77 87
77 28 357 28 30 23 38 42 20 21 22 4 7 6 353 355 1 358 358 360 358 354 352 350 347 346 349 355 12 36 70 66 51 46 58 59 57 64 76 83 87 87 85
69 67 27 36 32 24 34 49 56 40 30 4 12 33 11 3 359 356 355 356 355 353 353 352 350 350 351 354 13 46 53 45 46 47 43 41 54 67 77 76 81 88 94
60 53 45 42 41 34 29 39 34 41 47 17 8 23 30 12 1 359 358 354 351 352 353 352 351 354 350 353 12 35 32 37 22 40 49 50 58 61 74 79 82 83 92
55 51 49 44 38 39 38 47 43 26 48 64 32 5 8 13 12 16 359 353 352 354 356 357 358 1 359 1 7 17 25 14 19 53 60 63 61 65 72 74 76 76 85
56 47 44 51 42 38 36 41 45 36 24 32 43 31 14 15 23 26 9 353 357 2 2 2 4 7 6 5 14 26 11 352 3 30 72 84 90 82 81 83 87 87 92
55 50 48 43 41 39 41 40 36 30 28 29 30 27 25 22 20 17 19 8 2 9 10 10 9 8 19 18 12 14 7 351 357 348 75 97 97 97 92 90 97 108 118
59 54 50 46 42 39 38 39 37 30 27 29 26 27 28 26 24 17 14 20 16 19 18 11 11 13 8 14 1 351 350 348 345 338 344 94 96 88 86 83 87 101 109